SCP
0 0 0 0 0 0 0 0 0 0 0 -0 0 -0 -0 -0 -0 0 0 0 0 0 0 0 0 0 0 0 0 0 0 0 0 0 0 0 0 0 0 0 0 0 0
0 0 0 0 0 0 0 0 0 0 0 -0 0 -0 0 0 -0 0 0 0 0 0 0 0 0 0 0 0 0 0 0 0 0 0 0 0 0 0 0 0 0 0 0
0 0 0 0 0 0 0 0 0 -0 -0 -0 0 0 0 0 0 0 0 0 0 0 0 0 0 0 0 0 0 0 0 0 0 0 0 0 0 0 0 0 0 0 0
0 0 0 0 0 0 0 0 0 0 0 0 0 0 0 0 0 0 0 -0 0 0 0 0 0 0 0 0 0 0 0 0 0 0 0 0 0 0 0 0 0 0 0
0 0 0 0 0 0 0 0 0 0 0 0 0 0 0 0 0 0 0 -0 0 0 0 0 0 0 0 0 0 0 0 0 0 0 0 0 0 0 0 0 0 0 0
0 0 0 0 0 0 0 0 0 0 0 0 0 0 0 0 0 0 0 0 0 0 0 0 0 0 0 0 0 0 0 0 0 0 0 0 0 0 0 0 0 0 0
0 0 0 0 0 0 0 0 0 0 0 0 0 0 0 0 0 0 0 0 0 0 0 0 0 0 0 0 0 0 0 0 0 0 0 0 0 0 0 0 0 0 0
0 0 0 0 0 0 0 0 0 0 0 0 0 0 0 0 0 0 0 0 0 0 0 0 0 0 0 0 0 0 0 0 0 0 0 0 0 0 0 0 0 0 0
0 0 0 0 0 0 0 0 0 0 0 0 0 0 0 0 0 0 0 0 0 0 0 0 0 0 0 0 0 0 0 0 0 0 0 0 0 0 0 0 0 0 0
0 0 0 0 0 0 0 0 0 0 0 0 0 0 0 0 0 0 0 0 0 0 0 0 0 0 0 0 0 0 0 0 0 0 0 0 0 0 0 0 0 0 0
0 0 0 0 0 0 0 0 0 0 0 0 0 0 0 0 0 0 0 0 0 0 0 0 0 0 0 0 0 0 0 0 0 0 0 0 0 0 0 0 0 0 0
0 0 0 0 0 0 0 0 0 0 0 0 0 0 0 0 0 0 0 0 0 0 0 0 0 0 0 0 0 0 0 0 0 0 0 0 0 0 0 0 0 0 0
0 0 0 0 0 0 0 0 0 0 0 0 0 0 0 0 0 0 0 0 0 0 0 0 0 0 0 0 0 0 0 0 0 0 0 0 0 0 0 0 0 0 0
0 0 0 0 0 0 0 0 0 0 0 0 0 0 0 0 0 0 0 0 0 0 0 0 0 0 0 0 0 0 0 0 0 0 0 0 0 0 0 0 0 0 0
0 0 0 0 0 0 0 0 0 0 0 0 0 0 0 0 0 0 0 0 0 0 0 0 0 0 0 0 0 0 0 0 0 0 0 0 0 0 0 0 0 0 0
0 0 0 0 0 0 0 0 0 0 0 0 0 0 0 0 0 0 0 0 0 0 0 0 0 0 0 0 0 0 0 0 0 0 0 0 0 0 0 0 0 0 0
0 0 0 0 0 0 0 0 0 0 0 0 0 0 0 0 0 0 0 0 0 0 0 0 0 0 0 0 0 0 0 0 0 0 0 0 0 0 0 0 0 0 0
0 0 0 0 0 0 0 0 0 0 0 0 0 0 0 0 0 0 0 0 0 0 0 0 0 0 0 0 0 0 0 0 0 0 0 0 0 0 0 0 0 0 0
0 0 0 0 0 0 0 0 0 0 0 0 0 0 0 0 0 0 0 0 0 0 0 0 0 0 0 0 0 0 0 0 0 0 0 0 0 0 0 0 0 0 0
0 0 0 0 0 0 0 0 0 0 0 0 0 0 0 0 0 0 0 0 0 0 0 0 0 0 0 0 0 0 0 0 0 0 0 0 0 0 0 0 0 0 0
0 0 0 0 0 0 0 0 0 0 0 0 0 0 0 0 0 0 0 0 0 0 0 0 0 0 0 0 0 0 0 0 0 0 0 0 0 0 0 0 0 0 0
0 0 0 0 0 0 0 0 0 0 0 0 0 0 0 0 0 0 0 0 0 0 0 0 0 0 0 0 0 0 0 0 0 0 0 0 0 0 0 0 0 0 0
0 0 0 0 0 0 0 0 0 0 0 0 0 0 0 0 0 0 0 0 0 0 0 0 0 0 0 0 0 0 0 0 0 0 0 0 0 0 0 0 0 0 0
0 0 0 0 0 0 0 0 0 0 0 0 0 0 0 0 0 0 0 0 0 0 0 0 0 0 0 0 0 0 0 0 0 0 0 0 0 0 0 0 0 0 0
0 0 0 0 0 0 0 0 0 0 0 0 0 0 0 0 0 0 0 0 0 0 0 0 0 0 0 0 0 0 0 0 0 0 0 0 0 0 0 0 0 0 0
0 0 0 0 0 0 0 0 0 0 0 0 0 0 0 0 0 0 0 0 0 0 0 0 0 0 0 0 0 0 0 -0 0 0 0 0 0 0 0 0 0 0 0
Wind_Speed
4 3 3 2 3 2 2 2 2 2 2 2 2 3 3 3 2 2 1 2 2 3 3 3 3 3 3 3 3 3 4 5 5 6 6 6 6 5 5 4 3 3 3
5 4 4 3 3 3 3 3 3 2 2 2 3 3 4 3 3 3 1 1 2 2 2 3 3 3 3 3 3 3 3 4 5 5 6 6 5 5 4 4 3 2 2
6 5 4 4 4 3 3 2 2 2 2 2 2 2 2 3 3 3 2 1 1 2 2 3 3 3 3 4 4 3 4 4 4 5 5 6 5 5 5 4 4 3 2
8 6 5 5 4 3 3 3 2 2 2 1 1 1 1 2 3 3 2 2 2 1 2 3 2 3 3 3 4 4 4 4 4 5 5 5 5 5 5 5 4 4 4
8 7 5 5 4 3 3 4 3 2 2 2 2 1 1 1 2 3 3 3 3 2 2 2 3 2 3 3 4 4 4 5 5 5 5 5 5 5 5 5 5 5 5
8 7 5 4 4 3 3 3 3 2 2 3 2 1 0 1 2 3 4 3 3 3 3 2 1 1 3 3 3 4 4 4 5 5 5 5 5 5 5 5 5 5 5
6 6 5 4 4 4 4 5 3 3 2 2 2 1 1 1 2 3 3 3 4 4 3 3 2 2 1 3 3 4 5 5 5 5 5 4 4 4 4 4 5 5 5
6 6 6 5 4 3 3 4 3 3 2 3 3 2 0 2 2 2 2 3 4 3 4 5 4 4 3 2 2 4 4 4 5 4 4 3 3 3 3 3 4 4 4
7 6 6 6 5 5 4 4 4 5 3 2 2 4 4 4 2 2 2 2 3 3 4 3 5 5 4 3 3 4 6 5 6 6 5 4 3 3 3 3 3 3 2
7 7 7 7 6 5 5 5 4 3 3 3 1 1 2 3 3 1 2 1 2 3 4 4 4 5 5 4 5 7 8 7 7 7 6 5 5 4 3 3 3 2 1
5 6 6 6 6 6 6 6 5 5 3 4 3 2 2 1 1 2 2 2 2 2 3 4 4 4 5 5 5 7 10 9 8 9 8 7 6 5 4 3 3 3 3
2 3 4 4 5 5 6 6 6 6 5 4 3 3 3 3 3 3 3 2 2 2 2 2 3 4 4 5 7 10 11 11 10 9 8 7 7 6 6 5 4 4 3
2 3 3 3 4 4 5 5 5 6 6 5 5 4 3 3 3 3 3 2 2 2 2 2 3 3 3 4 5 10 10 11 11 10 9 8 7 7 7 6 5 5 4
1 2 2 2 3 3 4 4 4 4 4 5 5 4 3 3 3 3 3 3 2 1 2 3 2 2 2 2 4 7 6 11 12 11 10 9 8 7 7 7 6 5 4
2 3 3 2 2 2 2 3 3 3 3 4 4 4 3 3 3 3 3 3 4 3 2 2 2 1 1 2 3 3 4 8 10 11 10 10 9 9 8 7 6 5 4
3 3 3 2 2 2 2 3 3 2 3 2 2 3 3 2 3 3 3 3 3 3 3 2 2 1 1 1 2 3 4 7 8 9 10 10 10 10 9 8 8 7 6
4 4 3 2 3 3 2 2 3 3 2 1 1 2 2 3 3 3 3 3 3 3 3 2 1 1 1 1 1 0 1 2 3 7 9 10 10 10 10 10 9 9 8
5 5 4 4 4 3 3 3 3 3 3 2 1 2 2 2 3 3 3 3 3 3 3 2 1 1 1 1 1 1 1 1 2 4 6 8 9 10 10 11 10 10 10
6 6 5 5 5 4 4 3 2 2 2 1 1 1 1 2 2 2 3 2 2 2 2 2 1 1 1 1 1 1 1 1 1 2 4 6 7 8 9 10 10 10 10
7 7 6 6 5 4 4 3 3 3 2 2 1 0 1 2 3 3 3 3 3 3 2 2 1 0 1 1 1 1 1 1 1 2 1 1 3 5 7 8 9 9 10
9 7 7 7 6 4 4 4 3 3 2 3 2 1 0 1 3 3 3 3 4 3 2 2 1 0 1 1 1 1 1 1 1 2 2 2 1 1 1 3 5 7 8
8 8 9 8 8 7 9 8 5 3 3 3 3 3 2 2 3 4 5 5 5 4 3 2 1 1 0 0 0 0 0 1 1 2 2 2 2 1 1 1 1 2 3
8 9 9 8 8 9 12 10 8 4 3 3 3 3 2 3 4 3 5 7 5 4 4 4 3 1 1 0 1 1 1 1 1 2 2 2 2 2 3 4 5 3 2
7 7 8 8 8 10 14 12 9 5 4 4 4 3 3 3 3 3 4 5 4 4 4 3 3 2 1 1 1 1 1 2 2 2 2 2 3 3 4 4 9 8 8
7 7 6 8 8 10 14 13 10 4 4 5 4 4 4 3 4 5 5 5 5 4 5 7 7 6 6 5 3 2 2 3 2 3 3 2 2 2 3 5 7 11 11
6 5 7 7 8 8 13 13 10 4 4 4 4 5 7 6 6 5 4 4 5 3 3 5 6 7 6 7 8 4 2 2 2 2 3 2 1 1 2 3 5 6 7
Wind_Direction
206 210 214 211 213 206 211 226 239 255 266 265 242 231 231 223 206 200 255 256 232 234 203 174 163 159 164 170 168 165 163 163 164 160 155 153 150 144 141 139 137 133 126
206 209 219 218 214 206 206 210 226 244 259 264 259 234 222 208 198 194 201 269 258 247 241 210 188 183 189 190 189 188 182 181 180 178 175 171 168 167 166 167 166 160 148
206 207 213 220 217 200 198 203 222 231 249 243 250 239 212 198 186 192 198 217 265 263 252 242 227 210 215 212 209 206 195 193 196 197 192 188 187 188 191 194 195 195 196
207 204 211 223 211 186 184 193 200 210 226 216 219 238 201 186 191 196 204 218 229 244 262 257 254 239 238 235 229 219 209 202 204 208 207 202 203 207 211 215 217 217 218
208 205 212 221 203 189 190 201 184 183 193 195 196 221 233 208 202 205 215 225 228 227 228 262 256 242 248 252 246 235 223 214 214 217 216 212 212 217 222 226 230 231 231
201 200 206 213 197 195 197 190 180 177 178 173 166 122 295 245 220 220 223 224 227 230 224 231 244 253 247 254 258 251 240 228 225 226 224 218 213 217 227 233 237 239 242
195 191 196 189 188 200 206 188 167 167 164 135 111 63 332 292 238 237 227 226 230 227 220 222 217 216 246 255 254 254 249 239 233 232 232 228 222 224 235 240 244 250 252
190 192 187 178 180 190 191 180 161 155 164 162 147 136 262 319 288 238 228 227 229 215 220 222 213 214 216 221 241 249 257 249 241 238 236 231 228 232 238 244 248 253 256
187 181 182 178 179 181 189 184 176 168 174 192 181 154 162 214 260 293 255 241 230 217 225 220 219 217 213 213 225 239 240 239 241 241 236 231 229 234 237 246 254 259 258
186 177 176 177 179 178 182 189 181 182 168 177 196 191 158 157 163 243 296 275 248 231 231 230 228 220 213 213 218 222 228 228 234 237 236 232 231 233 238 242 240 241 247
179 178 172 173 182 183 187 186 178 186 186 180 177 167 151 122 144 157 233 285 305 262 237 230 230 226 216 214 215 223 225 223 225 232 235 235 233 231 231 228 229 235 244
157 171 169 179 186 186 190 190 183 188 194 193 190 179 171 170 183 175 200 227 262 288 280 249 234 231 221 215 223 223 221 219 219 224 228 235 237 237 234 231 229 232 237
152 171 169 184 191 190 187 181 181 187 190 192 194 195 191 187 160 161 171 195 232 284 305 282 248 239 233 215 224 224 222 217 216 218 220 227 233 237 240 242 243 235 240
118 129 138 148 155 169 180 176 177 181 184 192 195 189 187 189 176 172 168 164 193 253 279 277 293 260 258 238 232 225 226 220 216 217 219 222 226 229 232 238 248 252 257
73 92 109 125 134 139 150 157 167 172 174 185 192 193 193 189 185 192 178 174 173 196 247 271 285 300 277 251 243 217 221 228 223 218 218 220 222 223 225 229 233 239 245
51 65 75 91 95 116 150 150 145 150 157 172 182 195 191 183 181 188 184 184 177 173 214 241 251 273 292 279 227 209 220 231 231 224 220 221 221 222 224 225 226 227 225
43 52 61 79 79 75 88 108 111 115 120 135 177 186 194 180 180 181 173 172 178 173 203 246 257 281 301 327 347 286 223 215 227 231 226 225 225 224 225 226 225 224 224
37 42 48 59 64 67 71 87 104 108 119 134 158 175 193 186 180 171 170 178 180 177 183 217 275 317 319 336 327 310 280 226 224 242 237 234 232 229 228 228 226 224 224
37 40 48 53 54 54 58 64 79 87 100 118 139 182 198 180 183 173 171 173 171 165 160 171 241 327 329 353 4 358 353 346 275 251 243 241 242 239 234 231 228 225 225
40 37 39 39 42 47 48 48 54 55 44 38 39 203 197 190 190 179 170 164 149 137 137 149 171 314 321 341 31 11 0 3 342 342 328 295 262 252 245 238 234 229 227
38 34 37 32 27 35 36 35 36 44 36 28 16 8 64 138 165 164 155 152 143 132 128 128 129 73 1 17 10 351 357 353 8 6 358 358 352 342 293 259 247 236 230
35 37 35 30 28 28 32 39 44 42 39 36 24 11 14 54 105 114 123 140 145 144 147 141 139 142 171 237 293 14 35 47 40 11 15 12 23 21 3 0 327 254 239
34 37 32 28 24 21 34 39 44 50 48 44 34 22 22 46 71 90 95 94 93 103 132 143 136 145 146 149 129 74 59 65 58 1 8 27 16 28 19 25 27 35 24
31 32 30 25 23 22 29 35 43 47 48 40 34 31 35 35 51 91 99 88 75 65 82 97 113 121 126 126 118 114 113 91 65 20 19 54 15 26 25 28 32 43 45
32 30 27 25 23 15 20 29 39 38 43 36 28 33 40 39 46 94 105 103 91 72 77 89 91 81 73 77 93 90 78 78 56 18 14 60 26 25 35 30 28 40 49
29 27 29 23 20 14 17 27 36 37 38 29 25 26 30 40 52 89 105 115 112 97 87 76 64 53 50 52 56 64 93 99 91 45 8 39 37 43 68 36 30 31 41